Hourly Weather Alto Lucero

Today, 11 May, Tuesday

Time Temperature Precipitation Wind Pressure Humidity
00:00 +24°C° 0 mm 1 mps 690 mmHg 85%
01:00 +24°C° 0.2 mm 1 mps 690 mmHg 86%
02:00 +23°C° 0.2 mm 1 mps 690 mmHg 86%
03:00 +23°C° 0.2 mm 1 mps 690 mmHg 86%
04:00 +23°C° 0.1 mm 1 mps 690 mmHg 85%
05:00 +24°C° 0.1 mm 1 mps 691 mmHg 84%
06:00 +24°C° 0.1 mm 1 mps 691 mmHg 82%
07:00 +25°C° 0.1 mm 1 mps 691 mmHg 78%
08:00 +26°C° 0.1 mm 1 mps 692 mmHg 74%
09:00 +27°C° 0.1 mm 1 mps 692 mmHg 69%
10:00 +29°C° 0.3 mm 1 mps 692 mmHg 64%
11:00 +30°C° 0.3 mm 2 mps 692 mmHg 59%
12:00 +31°C° 0.3 mm 2 mps 692 mmHg 54%
13:00 +31°C° 0.3 mm 2 mps 691 mmHg 55%
14:00 +31°C° 0.3 mm 2 mps 691 mmHg 56%
15:00 +30°C° 0.3 mm 2 mps 690 mmHg 57%
16:00 +29°C° 0.3 mm 2 mps 690 mmHg 63%
17:00 +28°C° 0.3 mm 2 mps 690 mmHg 70%
18:00 +26°C° 0.3 mm 1 mps 689 mmHg 76%
19:00 +26°C° 0.3 mm 1 mps 690 mmHg 78%
20:00 +25°C° 0.3 mm 1 mps 690 mmHg 81%
21:00 +25°C° 0.3 mm 1 mps 690 mmHg 83%
22:00 +25°C° 0.1 mm 1 mps 690 mmHg 82%
23:00 +25°C° 0.1 mm 1 mps 690 mmHg 80%

Tomorrow, 12 May, Wednesday

Time Temperature Precipitation Wind Pressure Humidity
00:00 +25°C° 0.1 mm 1 mps 690 mmHg 79%
01:00 +25°C° 0 mm 1 mps 690 mmHg 78%
02:00 +24°C° 0 mm 1 mps 689 mmHg 77%
03:00 +24°C° 0 mm 1 mps 689 mmHg 76%
04:00 +24°C° 0 mm 1 mps 689 mmHg 78%
05:00 +24°C° 0 mm 1 mps 690 mmHg 79%
06:00 +24°C° 0 mm 1 mps 690 mmHg 81%
07:00 +25°C° 0.1 mm 1 mps 691 mmHg 76%
08:00 +26°C° 0.1 mm 1 mps 692 mmHg 71%
09:00 +28°C° 0.1 mm 1 mps 692 mmHg 66%
10:00 +29°C° 0.3 mm 1 mps 692 mmHg 63%
11:00 +29°C° 0.3 mm 1 mps 692 mmHg 60%
12:00 +30°C° 0.3 mm 1 mps 692 mmHg 58%
13:00 +30°C° 0.7 mm 1 mps 692 mmHg 58%
14:00 +30°C° 0.7 mm 1 mps 691 mmHg 59%
15:00 +30°C° 0.7 mm 2 mps 691 mmHg 60%
16:00 +29°C° 1.3 mm 1 mps 691 mmHg 67%
17:00 +28°C° 1.3 mm 1 mps 691 mmHg 73%
18:00 +26°C° 1.3 mm 1 mps 691 mmHg 79%
19:00 +25°C° 3.4 mm 1 mps 691 mmHg 83%
20:00 +25°C° 3.4 mm 1 mps 692 mmHg 87%
21:00 +24°C° 3.4 mm 1 mps 692 mmHg 91%
22:00 +23°C° 7.5 mm 1 mps 693 mmHg 91%
23:00 +23°C° 7.5 mm 1 mps 693 mmHg 91%

Day after tomorrow, 13 May, Thursday

Time Temperature Precipitation Wind Pressure Humidity
00:00 +22°C° 7.5 mm 1 mps 693 mmHg 91%
01:00 +22°C° 2.7 mm 1 mps 693 mmHg 91%
02:00 +21°C° 2.7 mm 1 mps 693 mmHg 91%
03:00 +20°C° 2.7 mm 2 mps 693 mmHg 91%
04:00 +21°C° 1.2 mm 1 mps 693 mmHg 92%
05:00 +21°C° 1.2 mm 1 mps 694 mmHg 92%
06:00 +21°C° 1.2 mm 1 mps 694 mmHg 92%
07:00 +22°C° 0.2 mm 1 mps 694 mmHg 89%
08:00 +22°C° 0.2 mm 1 mps 695 mmHg 86%
09:00 +23°C° 0.2 mm 1 mps 695 mmHg 83%
10:00 +24°C° 0.4 mm 1 mps 695 mmHg 79%
11:00 +25°C° 0.4 mm 1 mps 695 mmHg 76%
12:00 +26°C° 0.4 mm 2 mps 695 mmHg 72%
13:00 +25°C° 0.5 mm 2 mps 695 mmHg 74%
14:00 +24°C° 0.5 mm 2 mps 694 mmHg 77%
15:00 +24°C° 0.5 mm 2 mps 694 mmHg 79%
16:00 +23°C° 0.1 mm 2 mps 694 mmHg 80%
17:00 +23°C° 0.1 mm 2 mps 694 mmHg 81%
18:00 +21°C° 0.1 mm 2 mps 694 mmHg 82%
19:00 +21°C° 0 mm 2 mps 694 mmHg 82%
20:00 +21°C° 0 mm 2 mps 694 mmHg 83%
21:00 +20°C° 0 mm 2 mps 695 mmHg 84%
22:00 +21°C° 0 mm 1 mps 695 mmHg 84%
23:00 +21°C° 0 mm 1 mps 695 mmHg 84%

14 May, Friday

Time Temperature Precipitation Wind Pressure Humidity
00:00 +21°C° 0 mm 1 mps 695 mmHg 85%
01:00 +21°C° 0 mm 1 mps 694 mmHg 85%
02:00 +21°C° 0 mm 1 mps 694 mmHg 85%
03:00 +21°C° 0 mm 1 mps 694 mmHg 85%
04:00 +20°C° 0 mm 1 mps 694 mmHg 85%
05:00 +20°C° 0 mm 1 mps 694 mmHg 86%
06:00 +20°C° 0 mm 1 mps 694 mmHg 86%
07:00 +22°C° 0 mm 1 mps 695 mmHg 80%
08:00 +23°C° 0 mm 1 mps 695 mmHg 73%
09:00 +25°C° 0 mm 1 mps 696 mmHg 67%
10:00 +26°C° 0.1 mm 2 mps 695 mmHg 64%
11:00 +27°C° 0.1 mm 2 mps 695 mmHg 62%
12:00 +28°C° 0.1 mm 2 mps 695 mmHg 60%
13:00 +27°C° 0.4 mm 2 mps 694 mmHg 63%
14:00 +27°C° 0.4 mm 2 mps 694 mmHg 67%
15:00 +26°C° 0.4 mm 1 mps 693 mmHg 70%
16:00 +26°C° 0.4 mm 1 mps 693 mmHg 73%
17:00 +25°C° 0.4 mm 1 mps 693 mmHg 75%
18:00 +25°C° 0.4 mm 1 mps 693 mmHg 78%
19:00 +24°C° 0.6 mm 1 mps 693 mmHg 81%
20:00 +23°C° 0.6 mm 1 mps 694 mmHg 85%
21:00 +22°C° 0.6 mm 1 mps 694 mmHg 89%
22:00 +21°C° 0.1 mm 1 mps 694 mmHg 89%
23:00 +21°C° 0.1 mm 1 mps 694 mmHg 89%

15 May, Saturday

Time Temperature Precipitation Wind Pressure Humidity
00:00 +21°C° 0.1 mm 1 mps 694 mmHg 89%
01:00 +21°C° 0 mm 1 mps 693 mmHg 89%
02:00 +21°C° 0 mm 1 mps 693 mmHg 89%
03:00 +21°C° 0 mm 1 mps 692 mmHg 88%
04:00 +20°C° 0 mm 1 mps 692 mmHg 89%
05:00 +20°C° 0 mm 1 mps 693 mmHg 89%
06:00 +20°C° 0 mm 1 mps 693 mmHg 89%
07:00 +22°C° 0 mm 1 mps 693 mmHg 83%
08:00 +24°C° 0 mm 1 mps 694 mmHg 76%
09:00 +26°C° 0 mm 1 mps 694 mmHg 70%
10:00 +27°C° 0 mm 1 mps 694 mmHg 64%
11:00 +28°C° 0 mm 2 mps 694 mmHg 58%
12:00 +30°C° 0 mm 2 mps 693 mmHg 52%
13:00 +30°C° 0 mm 2 mps 693 mmHg 53%
14:00 +29°C° 0 mm 2 mps 692 mmHg 53%
15:00 +29°C° 0 mm 3 mps 692 mmHg 54%
16:00 +28°C° 0 mm 2 mps 692 mmHg 60%
17:00 +27°C° 0 mm 2 mps 692 mmHg 66%
18:00 +26°C° 0 mm 1 mps 691 mmHg 72%
19:00 +25°C° 0 mm 1 mps 692 mmHg 78%
20:00 +24°C° 0 mm 1 mps 692 mmHg 83%
21:00 +23°C° 0 mm 1 mps 692 mmHg 88%
22:00 +22°C° 0 mm 1 mps 692 mmHg 88%
23:00 +22°C° 0 mm 1 mps 692 mmHg 88%

16 May, Sunday

Time Temperature Precipitation Wind Pressure Humidity
00:00 +22°C° 0 mm 1 mps 692 mmHg 87%
01:00 +22°C° 0 mm 1 mps 692 mmHg 86%
02:00 +22°C° 0 mm 1 mps 691 mmHg 85%
03:00 +22°C° 0 mm 1 mps 691 mmHg 84%
04:00 +22°C° 0 mm 1 mps 691 mmHg 84%
05:00 +22°C° 0 mm 1 mps 691 mmHg 84%
06:00 +22°C° 0 mm 1 mps 691 mmHg 84%
07:00 +24°C° 0 mm 1 mps 692 mmHg 76%
08:00 +25°C° 0 mm 1 mps 692 mmHg 69%
09:00 +27°C° 0 mm 1 mps 693 mmHg 61%
10:00 +29°C° 0 mm 1 mps 693 mmHg 57%
11:00 +30°C° 0 mm 2 mps 692 mmHg 54%
12:00 +31°C° 0 mm 2 mps 692 mmHg 50%
13:00 +31°C° 0.1 mm 2 mps 692 mmHg 51%
14:00 +31°C° 0.1 mm 2 mps 691 mmHg 51%
15:00 +31°C° 0.1 mm 3 mps 691 mmHg 52%
16:00 +30°C° 0 mm 2 mps 691 mmHg 58%
17:00 +28°C° 0 mm 2 mps 691 mmHg 64%
18:00 +27°C° 0 mm 2 mps 690 mmHg 71%
19:00 +26°C° 0.1 mm 1 mps 691 mmHg 76%
20:00 +25°C° 0.1 mm 1 mps 691 mmHg 81%
21:00 +24°C° 0.1 mm 1 mps 691 mmHg 86%
22:00 +23°C° 0.1 mm 1 mps 691 mmHg 86%
23:00 +23°C° 0.1 mm 1 mps 691 mmHg 86%
Show more

We Need Your Consent

Meteoprog and our Service Providers may store and access personal data such as cookies, device identifiers or other similar technologies on your device and process such data to personalise content and ads, as well as provide social media features and to analyse the traffic.

  • Store and/or access information on your device

    Cookies, device identifiers or other information can be stored or accessed on your device for the purposes indicated above.

  • Personalised ads and content, ad and content measurement, audience insights, and products development

    Ads and content can be personalised based on a profile. More data can be added to better personalise ads and content. Ad and content performance can be measured. Insights about the audience who saw the ads and content can be derived. Such data can be used to develop or improve user’s experience, systems and software.

By clicking ‘I Agree’ you will allow the use of indicated cookies, device identifiers, web beacons or other similar technologies. Your settings can be changed in the browser on your device.

For certain purposes, legitimate interests may be relied on, rather than consent. You can read more about this in our Privacy and Cookie Policy.